Location: PSU-Greenbush Astrophysical Observatory
(37.5140°N, 94.9880°W)
Time: 09:00:34
(UTC-06:00)

Altair - Pass Details

Date: 26 January 2020
Orbit: 1502 x 1682 km, 47.2° (Epoch: 24 February)

Event Time Altitude Azimuth Distance (km) Brightness Sun altitude
Rises 15:32:23 0° 301° (WNW) 4,932 10.3 19.7°
Reaches altitude 10° 15:35:40 10° 297° (WNW) 3,932 10.0 19.2°
Maximum altitude 15:45:17 52° 225° (SW) 1,966 9.2 17.8°
Drops below altitude 10° 15:54:36 10° 152° (SSE) 3,805 9.8 16.4°
Sets 15:57:44 0° 147° (SSE) 4,763 10.2 15.9°
